Time,TemperatureF,DewpointF,PressureIn,WindDirection,WindDirectionDegrees,WindSpeedMPH,WindSpeedGustMPH,Humidity,HourlyPrecipIn,Conditions,Clouds,dailyrainin,SoftwareType,DateUTC
2013-01-18 00:03:00,32.2,23.6,30.40,South,180,3.4,4.0,70,0.00,,,0.00,WUHU216HW,2013-01-18 06:03:00,
2013-01-18 00:08:00,32.2,23.6,30.40,South,180,4.0,4.0,70,0.00,,,0.00,WUHU216HW,2013-01-18 06:08:00,
2013-01-18 00:13:00,32.2,23.9,30.40,SSW,203,4.9,4.9,71,0.00,,,0.00,WUHU216HW,2013-01-18 06:13:00,
2013-01-18 00:18:00,32.4,24.0,30.40,South,180,2.5,4.9,71,0.00,,,0.00,WUHU216HW,2013-01-18 06:18:00,
2013-01-18 00:23:00,32.4,24.4,30.40,South,180,2.5,4.7,72,0.00,,,0.00,WUHU216HW,2013-01-18 06:23:00,
2013-01-18 00:28:00,32.2,24.2,30.40,South,180,2.7,4.7,72,0.00,,,0.00,WUHU216HW,2013-01-18 06:28:00,
2013-01-18 00:33:00,32.2,24.2,30.39,South,180,3.1,4.5,72,0.00,,,0.00,WUHU216HW,2013-01-18 06:33:00,
2013-01-18 00:38:00,32.2,24.6,30.39,South,180,3.1,4.5,73,0.00,,,0.00,WUHU216HW,2013-01-18 06:38:00,
2013-01-18 00:43:00,32.0,24.0,30.39,SSW,203,2.7,3.6,72,0.00,,,0.00,WUHU216HW,2013-01-18 06:43:00,
2013-01-18 00:48:00,32.0,24.0,30.39,South,180,3.4,3.6,72,0.00,,,0.00,WUHU216HW,2013-01-18 06:48:00,
2013-01-18 00:53:00,32.0,24.4,30.39,South,180,3.8,3.8,73,0.00,,,0.00,WUHU216HW,2013-01-18 06:53:00,
2013-01-18 00:58:00,31.9,24.2,30.39,South,180,4.0,4.0,73,0.00,,,0.00,WUHU216HW,2013-01-18 06:58:00,
2013-01-18 01:03:00,31.7,24.0,30.39,South,180,3.1,4.0,73,0.00,,,0.00,WUHU216HW,2013-01-18 07:03:00,
2013-01-18 01:08:00,31.7,24.0,30.39,SSW,203,3.6,4.0,73,0.00,,,0.00,WUHU216HW,2013-01-18 07:08:00,
2013-01-18 01:13:00,31.7,24.3,30.39,SSW,203,2.5,4.7,74,0.00,,,0.00,WUHU216HW,2013-01-18 07:13:00,
2013-01-18 01:18:00,31.7,24.3,30.39,SSW,203,3.6,4.7,74,0.00,,,0.00,WUHU216HW,2013-01-18 07:18:00,
2013-01-18 01:23:00,31.7,24.3,30.39,South,180,4.0,4.0,74,0.00,,,0.00,WUHU216HW,2013-01-18 07:23:00,
2013-01-18 01:28:00,31.7,24.3,30.39,South,180,4.0,4.0,74,0.00,,,0.00,WUHU216HW,2013-01-18 07:28:00,
2013-01-18 01:33:00,31.5,24.5,30.39,South,180,4.3,4.5,75,0.00,,,0.00,WUHU216HW,2013-01-18 07:33:00,
2013-01-18 01:38:00,31.3,24.3,30.39,WSW,248,4.7,4.7,75,0.00,,,0.00,WUHU216HW,2013-01-18 07:38:00,
2013-01-18 01:43:00,31.3,24.3,30.39,SSW,203,4.3,4.7,75,0.00,,,0.00,WUHU216HW,2013-01-18 07:43:00,
2013-01-18 01:48:00,31.3,24.3,30.39,SSW,203,4.0,4.9,75,0.00,,,0.00,WUHU216HW,2013-01-18 07:48:00,
2013-01-18 01:53:00,31.1,24.1,30.39,South,180,3.8,4.9,75,0.00,,,0.00,WUHU216HW,2013-01-18 07:53:00,
2013-01-18 01:58:00,31.1,24.5,30.39,South,180,3.4,4.0,76,0.00,,,0.00,WUHU216HW,2013-01-18 07:58:00,
2013-01-18 02:03:00,31.0,24.3,30.39,South,180,3.4,3.8,76,0.00,,,0.00,WUHU216HW,2013-01-18 08:03:00,
2013-01-18 02:08:00,31.0,24.3,30.39,SSW,203,4.0,4.0,76,0.00,,,0.00,WUHU216HW,2013-01-18 08:08:00,
2013-01-18 02:13:00,31.0,24.6,30.39,South,180,3.8,4.3,77,0.00,,,0.00,WUHU216HW,2013-01-18 08:13:00,
2013-01-18 02:18:00,31.0,24.3,30.39,South,180,4.0,4.3,76,0.00,,,0.00,WUHU216HW,2013-01-18 08:18:00,
2013-01-18 02:23:00,31.0,24.6,30.39,SSW,203,5.1,5.1,77,0.00,,,0.00,WUHU216HW,2013-01-18 08:23:00,
2013-01-18 02:28:00,31.0,24.6,30.39,South,180,3.1,5.1,77,0.00,,,0.00,WUHU216HW,2013-01-18 08:28:00,
2013-01-18 02:33:00,31.1,24.8,30.39,South,180,3.6,4.3,77,0.00,,,0.00,WUHU216HW,2013-01-18 08:33:00,
2013-01-18 02:38:00,31.1,25.1,30.38,South,180,3.4,4.5,78,0.00,,,0.00,WUHU216HW,2013-01-18 08:38:00,
2013-01-18 02:43:00,31.3,25.3,30.38,SSE,158,3.8,4.5,78,0.00,,,0.00,WUHU216HW,2013-01-18 08:43:00,
2013-01-18 02:48:00,31.3,24.9,30.38,SSW,203,4.5,4.5,77,0.00,,,0.00,WUHU216HW,2013-01-18 08:48:00,
2013-01-18 02:53:00,31.1,25.1,30.38,South,180,4.5,5.4,78,0.00,,,0.00,WUHU216HW,2013-01-18 08:53:00,
2013-01-18 02:58:00,31.0,24.9,30.38,South,180,3.4,5.4,78,0.00,,,0.00,WUHU216HW,2013-01-18 08:58:00,
2013-01-18 03:03:00,31.0,24.9,30.37,South,180,2.9,4.0,78,0.00,,,0.00,WUHU216HW,2013-01-18 09:03:00,
2013-01-18 03:08:00,31.0,24.9,30.37,SSW,203,3.1,3.8,78,0.00,,,0.00,WUHU216HW,2013-01-18 09:08:00,
2013-01-18 03:13:00,31.0,24.9,30.37,South,180,4.0,4.7,78,0.00,,,0.00,WUHU216HW,2013-01-18 09:13:00,
2013-01-18 03:18:00,31.1,25.1,30.37,SSW,203,4.7,4.7,78,0.00,,,0.00,WUHU216HW,2013-01-18 09:18:00,
2013-01-18 03:23:00,31.3,25.6,30.37,SSW,203,6.3,6.3,79,0.00,,,0.00,WUHU216HW,2013-01-18 09:23:00,
2013-01-18 03:28:00,31.7,25.9,30.37,SW,225,6.9,6.9,79,0.00,,,0.00,WUHU216HW,2013-01-18 09:28:00,
2013-01-18 03:33:00,31.7,25.7,30.37,SW,225,5.4,6.9,78,0.00,,,0.00,WUHU216HW,2013-01-18 09:33:00,
2013-01-18 03:38:00,31.7,25.7,30.36,South,180,4.7,6.9,78,0.00,,,0.00,WUHU216HW,2013-01-18 09:38:00,
2013-01-18 03:43:00,31.7,25.7,30.36,South,180,5.1,6.9,78,0.00,,,0.00,WUHU216HW,2013-01-18 09:43:00,
2013-01-18 03:48:00,31.7,25.9,30.36,SSW,203,5.6,6.7,79,0.00,,,0.00,WUHU216HW,2013-01-18 09:48:00,
2013-01-18 03:53:00,31.9,26.1,30.36,South,180,6.9,8.9,79,0.00,,,0.00,WUHU216HW,2013-01-18 09:53:00,
2013-01-18 03:58:00,32.0,26.6,30.36,SW,225,6.5,9.4,80,0.00,,,0.00,WUHU216HW,2013-01-18 09:58:00,
2013-01-18 04:03:00,32.2,26.8,30.36,SSW,203,7.4,9.4,80,0.00,,,0.00,WUHU216HW,2013-01-18 10:03:00,
2013-01-18 04:08:00,32.2,26.5,30.35,SSW,203,5.8,9.2,79,0.00,,,0.00,WUHU216HW,2013-01-18 10:08:00,
2013-01-18 04:13:00,32.4,26.6,30.35,SW,225,7.6,9.2,79,0.00,,,0.00,WUHU216HW,2013-01-18 10:13:00,
2013-01-18 04:18:00,32.4,26.6,30.35,South,180,5.4,9.2,79,0.00,,,0.00,WUHU216HW,2013-01-18 10:18:00,
2013-01-18 04:23:00,32.4,26.6,30.35,SSW,203,4.7,8.9,79,0.00,,,0.00,WUHU216HW,2013-01-18 10:23:00,
2013-01-18 04:28:00,32.2,26.5,30.35,WSW,248,4.0,6.5,79,0.00,,,0.00,WUHU216HW,2013-01-18 10:28:00,
2013-01-18 04:33:00,32.2,26.5,30.35,SSW,203,4.7,6.0,79,0.00,,,0.00,WUHU216HW,2013-01-18 10:33:00,
2013-01-18 04:38:00,32.0,26.3,30.35,South,180,4.9,6.0,79,0.00,,,0.00,WUHU216HW,2013-01-18 10:38:00,
2013-01-18 04:43:00,31.9,25.8,30.35,SSW,203,4.0,4.9,78,0.00,,,0.00,WUHU216HW,2013-01-18 10:43:00,
2013-01-18 04:48:00,31.9,26.1,30.34,South,180,2.5,4.9,79,0.00,,,0.00,WUHU216HW,2013-01-18 10:48:00,
2013-01-18 04:53:00,32.0,26.6,30.34,South,180,5.4,5.4,80,0.00,,,0.00,WUHU216HW,2013-01-18 10:53:00,
2013-01-18 04:58:00,32.2,26.8,30.34,SSW,203,4.0,5.8,80,0.00,,,0.00,WUHU216HW,2013-01-18 10:58:00,
2013-01-18 05:03:00,32.6,27.1,30.34,SW,225,6.9,6.9,80,0.00,,,0.00,WUHU216HW,2013-01-18 11:03:00,
2013-01-18 05:08:00,33.1,27.3,30.34,SW,225,6.0,7.4,79,0.00,,,0.00,WUHU216HW,2013-01-18 11:08:00,
2013-01-18 05:13:00,33.3,27.1,30.34,SSW,203,5.4,7.4,78,0.00,,,0.00,WUHU216HW,2013-01-18 11:13:00,
2013-01-18 05:18:00,33.5,27.3,30.34,SSW,203,4.0,6.0,78,0.00,,,0.00,WUHU216HW,2013-01-18 11:18:00,
2013-01-18 05:23:00,33.5,27.0,30.34,SSW,203,6.7,6.7,77,0.00,,,0.00,WUHU216HW,2013-01-18 11:23:00,
2013-01-18 05:28:00,33.5,27.0,30.33,South,180,3.6,6.7,77,0.00,,,0.00,WUHU216HW,2013-01-18 11:28:00,
2013-01-18 05:33:00,33.5,27.0,30.33,South,180,3.4,6.0,77,0.00,,,0.00,WUHU216HW,2013-01-18 11:33:00,
2013-01-18 05:38:00,33.3,26.8,30.33,SSW,203,5.6,5.6,77,0.00,,,0.00,WUHU216HW,2013-01-18 11:38:00,
2013-01-18 05:43:00,33.1,27.0,30.32,South,180,4.0,5.6,78,0.00,,,0.00,WUHU216HW,2013-01-18 11:43:00,
2013-01-18 05:48:00,33.1,27.0,30.32,South,180,3.8,4.3,78,0.00,,,0.00,WUHU216HW,2013-01-18 11:48:00,
2013-01-18 05:53:00,33.1,27.0,30.32,SSE,158,5.6,6.3,78,0.00,,,0.00,WUHU216HW,2013-01-18 11:53:00,
2013-01-18 05:58:00,33.5,27.3,30.31,South,180,4.9,8.7,78,0.00,,,0.00,WUHU216HW,2013-01-18 11:58:00,
2013-01-18 06:03:00,33.8,27.3,30.31,SSW,203,4.9,9.6,77,0.00,,,0.00,WUHU216HW,2013-01-18 12:03:00,
2013-01-18 06:08:00,34.2,27.4,30.31,South,180,5.8,9.6,76,0.00,,,0.00,WUHU216HW,2013-01-18 12:08:00,
2013-01-18 06:13:00,34.6,27.7,30.31,SSW,203,8.5,9.6,76,0.00,,,0.00,WUHU216HW,2013-01-18 12:13:00,
2013-01-18 06:18:00,34.6,27.7,30.31,WSW,248,6.5,9.2,76,0.00,,,0.00,WUHU216HW,2013-01-18 12:18:00,
2013-01-18 06:23:00,34.6,27.7,30.31,SSW,203,6.5,9.8,76,0.00,,,0.00,WUHU216HW,2013-01-18 12:23:00,
2013-01-18 06:28:00,34.6,27.7,30.31,SSW,203,7.8,9.8,76,0.00,,,0.00,WUHU216HW,2013-01-18 12:28:00,
2013-01-18 06:33:00,34.7,27.5,30.31,SW,225,6.7,8.5,75,0.00,,,0.00,WUHU216HW,2013-01-18 12:33:00,
2013-01-18 06:38:00,34.7,27.5,30.31,SSW,203,6.3,7.8,75,0.00,,,0.00,WUHU216HW,2013-01-18 12:38:00,
2013-01-18 06:43:00,34.9,27.7,30.31,SSW,203,7.8,7.8,75,0.00,,,0.00,WUHU216HW,2013-01-18 12:43:00,
2013-01-18 06:48:00,34.9,27.7,30.31,SSW,203,6.9,9.8,75,0.00,,,0.00,WUHU216HW,2013-01-18 12:48:00,
2013-01-18 06:53:00,34.9,27.7,30.31,SW,225,7.6,9.8,75,0.00,,,0.00,WUHU216HW,2013-01-18 12:53:00,
2013-01-18 06:58:00,34.9,27.7,30.31,SSW,203,6.5,8.9,75,0.00,,,0.00,WUHU216HW,2013-01-18 12:58:00,
2013-01-18 07:03:00,35.1,27.9,30.31,SSW,203,10.1,10.1,75,0.00,,,0.00,WUHU216HW,2013-01-18 13:03:00,
2013-01-18 07:08:00,35.3,27.7,30.30,South,180,8.5,10.5,74,0.00,,,0.00,WUHU216HW,2013-01-18 13:08:00,
2013-01-18 07:13:00,35.3,27.7,30.30,South,180,7.6,10.5,74,0.00,,,0.00,WUHU216HW,2013-01-18 13:13:00,
2013-01-18 07:18:00,35.5,27.9,30.30,SSW,203,5.6,9.2,74,0.00,,,0.00,WUHU216HW,2013-01-18 13:18:00,
2013-01-18 07:23:00,35.5,27.9,30.29,South,180,7.4,10.1,74,0.00,,,0.00,WUHU216HW,2013-01-18 13:23:00,
2013-01-18 07:28:00,35.6,28.1,30.29,South,180,7.8,10.5,74,0.00,,,0.00,WUHU216HW,2013-01-18 13:28:00,
2013-01-18 07:33:00,35.6,28.1,30.29,SSE,158,10.1,10.5,74,0.00,,,0.00,WUHU216HW,2013-01-18 13:33:00,
2013-01-18 07:42:00,35.8,28.0,30.29,SSW,203,9.8,9.8,73,0.00,,,0.00,WUHU216HW,2013-01-18 13:42:00,
2013-01-18 07:47:00,36.0,28.2,30.28,South,180,8.5,12.8,73,0.00,,,0.00,WUHU216HW,2013-01-18 13:47:00,
2013-01-18 07:52:00,36.2,28.4,30.28,SSW,203,9.2,13.9,73,0.00,,,0.00,WUHU216HW,2013-01-18 13:52:00,
2013-01-18 07:57:00,36.4,28.5,30.28,SSW,203,7.6,13.9,73,0.00,,,0.00,WUHU216HW,2013-01-18 13:57:00,
2013-01-18 08:02:00,37.1,28.9,30.28,WSW,248,10.3,15.0,72,0.00,,,0.00,WUHU216HW,2013-01-18 14:02:00,
2013-01-18 08:07:00,37.4,29.0,30.28,SW,225,8.3,17.9,71,0.00,,,0.00,WUHU216HW,2013-01-18 14:07:00,
2013-01-18 08:12:00,37.6,28.8,30.28,SSW,203,10.1,17.9,70,0.00,,,0.00,WUHU216HW,2013-01-18 14:12:00,
2013-01-18 08:17:00,37.6,28.8,30.28,SSW,203,8.5,15.0,70,0.00,,,0.00,WUHU216HW,2013-01-18 14:17:00,
2013-01-18 08:22:00,38.2,28.9,30.28,SW,225,11.2,15.0,69,0.00,,,0.00,WUHU216HW,2013-01-18 14:22:00,
2013-01-18 08:27:00,38.2,28.9,30.28,SSW,203,11.4,17.0,69,0.00,,,0.00,WUHU216HW,2013-01-18 14:27:00,
2013-01-18 08:32:00,38.5,28.8,30.27,SSW,203,14.3,17.0,68,0.00,,,0.00,WUHU216HW,2013-01-18 14:32:00,
2013-01-18 08:37:00,39.2,29.1,30.27,SSW,203,12.8,15.0,67,0.00,,,0.00,WUHU216HW,2013-01-18 14:37:00,
2013-01-18 08:42:00,39.6,29.1,30.27,South,180,16.6,16.6,66,0.00,,,0.00,WUHU216HW,2013-01-18 14:42:00,
2013-01-18 08:47:00,40.0,29.4,30.26,West,270,9.2,16.6,66,0.00,,,0.00,WUHU216HW,2013-01-18 14:47:00,
2013-01-18 08:52:00,40.0,29.4,30.26,SW,225,16.1,16.1,66,0.00,,,0.00,WUHU216HW,2013-01-18 14:52:00,
2013-01-18 08:57:00,40.3,29.8,30.26,SSW,203,14.1,16.1,66,0.00,,,0.00,WUHU216HW,2013-01-18 14:57:00,
2013-01-18 09:02:00,40.5,29.6,30.25,SW,225,10.5,16.3,65,0.00,,,0.00,WUHU216HW,2013-01-18 15:02:00,
2013-01-18 09:07:00,40.9,29.6,30.25,SSW,203,17.4,17.4,64,0.00,,,0.00,WUHU216HW,2013-01-18 15:07:00,
2013-01-18 09:12:00,41.6,29.9,30.25,SW,225,14.1,17.4,63,0.00,,,0.00,WUHU216HW,2013-01-18 15:12:00,
2013-01-18 09:17:00,41.9,29.9,30.25,SSW,203,15.0,15.9,62,0.00,,,0.00,WUHU216HW,2013-01-18 15:17:00,
2013-01-18 09:22:00,42.3,30.2,30.25,South,180,12.5,15.0,62,0.00,,,0.00,WUHU216HW,2013-01-18 15:22:00,
2013-01-18 09:27:00,42.5,30.0,30.26,SW,225,15.7,18.6,61,0.00,,,0.00,WUHU216HW,2013-01-18 15:27:00,
2013-01-18 09:32:00,42.8,29.9,30.26,WSW,248,13.2,18.6,60,0.00,,,0.00,WUHU216HW,2013-01-18 15:32:00,
2013-01-18 09:37:00,43.2,30.2,30.26,SSW,203,10.7,13.4,60,0.00,,,0.00,WUHU216HW,2013-01-18 15:37:00,
2013-01-18 09:42:00,43.6,30.2,30.26,SSE,158,13.4,17.7,59,0.00,,,0.00,WUHU216HW,2013-01-18 15:42:00,
2013-01-18 09:47:00,44.1,30.2,30.26,SSW,203,11.9,17.7,58,0.00,,,0.00,WUHU216HW,2013-01-18 15:47:00,
2013-01-18 09:52:00,44.5,29.7,30.26,SSW,203,17.9,17.9,56,0.00,,,0.00,WUHU216HW,2013-01-18 15:52:00,
2013-01-18 09:57:00,45.0,30.7,30.25,SSW,203,12.1,17.9,57,0.00,,,0.00,WUHU216HW,2013-01-18 15:57:00,
2013-01-18 10:02:00,45.4,30.5,30.25,SSW,203,13.4,17.4,56,0.00,,,0.00,WUHU216HW,2013-01-18 16:02:00,
2013-01-18 10:07:00,45.7,30.4,30.24,SW,225,13.6,17.9,55,0.00,,,0.00,WUHU216HW,2013-01-18 16:07:00,
2013-01-18 10:12:00,46.1,30.7,30.25,South,180,10.5,17.9,55,0.00,,,0.00,WUHU216HW,2013-01-18 16:12:00,
2013-01-18 10:17:00,46.4,30.6,30.24,WSW,248,15.0,16.3,54,0.00,,,0.00,WUHU216HW,2013-01-18 16:17:00,
2013-01-18 10:22:00,46.8,30.5,30.25,SSW,203,16.3,20.1,53,0.00,,,0.00,WUHU216HW,2013-01-18 16:22:00,
2013-01-18 10:27:00,47.2,30.3,30.24,SW,225,20.1,20.1,52,0.00,,,0.00,WUHU216HW,2013-01-18 16:27:00,
2013-01-18 10:32:00,47.7,30.9,30.24,SW,225,16.3,20.1,52,0.00,,,0.00,WUHU216HW,2013-01-18 16:32:00,
2013-01-18 10:37:00,47.9,30.6,30.23,SW,225,18.8,18.8,51,0.00,,,0.00,WUHU216HW,2013-01-18 16:37:00,
2013-01-18 10:42:00,48.1,30.7,30.23,SW,225,20.1,20.1,51,0.00,,,0.00,WUHU216HW,2013-01-18 16:42:00,
2013-01-18 10:47:00,48.6,30.8,30.23,SW,225,11.4,20.1,50,0.00,,,0.00,WUHU216HW,2013-01-18 16:47:00,
2013-01-18 10:52:00,49.1,31.3,30.23,South,180,12.3,17.2,50,0.00,,,0.00,WUHU216HW,2013-01-18 16:52:00,
2013-01-18 10:57:00,49.7,30.8,30.23,SSW,203,18.8,18.8,48,0.00,,,0.00,WUHU216HW,2013-01-18 16:57:00,
2013-01-18 11:02:00,50.2,31.2,30.22,SSW,203,11.4,18.8,48,0.00,,,0.00,WUHU216HW,2013-01-18 17:02:00,
2013-01-18 11:07:00,50.6,31.1,30.22,SW,225,19.7,19.7,47,0.00,,,0.00,WUHU216HW,2013-01-18 17:07:00,
2013-01-18 11:12:00,51.3,31.2,30.21,WSW,248,9.8,19.7,46,0.00,,,0.00,WUHU216HW,2013-01-18 17:12:00,
2013-01-18 11:17:00,51.5,30.7,30.21,South,180,19.0,19.0,45,0.00,,,0.00,WUHU216HW,2013-01-18 17:17:00,
2013-01-18 11:22:00,51.3,30.6,30.21,SW,225,26.4,26.4,45,0.00,,,0.00,WUHU216HW,2013-01-18 17:22:00,
2013-01-18 11:27:00,51.5,30.7,30.20,SW,225,21.5,26.4,45,0.00,,,0.00,WUHU216HW,2013-01-18 17:27:00,
2013-01-18 11:32:00,52.0,31.2,30.20,SW,225,9.8,21.5,45,0.00,,,0.00,WUHU216HW,2013-01-18 17:32:00,
2013-01-18 11:37:00,52.2,30.8,30.20,SW,225,19.2,19.2,44,0.00,,,0.00,WUHU216HW,2013-01-18 17:37:00,
2013-01-18 11:42:00,52.2,30.8,30.19,WSW,248,14.1,19.2,44,0.00,,,0.00,WUHU216HW,2013-01-18 17:42:00,
2013-01-18 11:47:00,52.4,30.4,30.18,SW,225,13.9,17.0,43,0.00,,,0.00,WUHU216HW,2013-01-18 17:47:00,
2013-01-18 11:52:00,53.3,31.8,30.18,South,180,15.2,19.2,44,0.00,,,0.00,WUHU216HW,2013-01-18 17:52:00,
2013-01-18 11:57:00,52.9,31.5,30.17,South,180,13.4,20.6,44,0.00,,,0.00,WUHU216HW,2013-01-18 17:57:00,
2013-01-18 12:02:00,53.3,31.8,30.16,SW,225,12.1,21.5,44,0.00,,,0.00,WUHU216HW,2013-01-18 18:02:00,
2013-01-18 12:07:00,53.8,31.1,30.15,SW,225,15.0,21.5,42,0.00,,,0.00,WUHU216HW,2013-01-18 18:07:00,
2013-01-18 12:12:00,53.8,31.1,30.14,SW,225,15.7,17.7,42,0.00,,,0.00,WUHU216HW,2013-01-18 18:12:00,
2013-01-18 12:17:00,54.2,31.0,30.14,SSW,203,23.7,23.7,41,0.00,,,0.00,WUHU216HW,2013-01-18 18:17:00,
2013-01-18 12:22:00,54.0,30.8,30.13,SW,225,15.9,23.7,41,0.00,,,0.00,WUHU216HW,2013-01-18 18:22:00,
2013-01-18 12:27:00,54.7,31.4,30.13,SW,225,15.7,21.3,41,0.00,,,0.00,WUHU216HW,2013-01-18 18:27:00,
2013-01-18 12:32:00,54.7,31.4,30.13,WSW,248,13.2,18.8,41,0.00,,,0.00,WUHU216HW,2013-01-18 18:32:00,
2013-01-18 12:37:00,55.4,32.0,30.13,West,270,14.8,18.8,41,0.00,,,0.00,WUHU216HW,2013-01-18 18:37:00,
2013-01-18 12:42:00,55.6,31.7,30.13,SW,225,15.9,15.9,40,0.00,,,0.00,WUHU216HW,2013-01-18 18:42:00,
2013-01-18 12:47:00,56.2,32.1,30.12,SSW,203,12.8,17.4,40,0.00,,,0.00,WUHU216HW,2013-01-18 18:47:00,
2013-01-18 12:52:00,56.9,31.4,30.11,SW,225,16.1,19.5,38,0.00,,,0.00,WUHU216HW,2013-01-18 18:52:00,
2013-01-18 12:57:00,56.9,31.4,30.11,SSW,203,17.9,19.5,38,0.00,,,0.00,WUHU216HW,2013-01-18 18:57:00,
2013-01-18 13:02:00,56.5,31.1,30.11,SSW,203,15.9,23.0,38,0.00,,,0.00,WUHU216HW,2013-01-18 19:02:00,
2013-01-18 13:07:00,56.9,31.4,30.10,SSW,203,12.3,23.0,38,0.00,,,0.00,WUHU216HW,2013-01-18 19:07:00,
2013-01-18 13:12:00,56.9,31.4,30.10,SSW,203,9.8,19.2,38,0.00,,,0.00,WUHU216HW,2013-01-18 19:12:00,
2013-01-18 13:17:00,57.1,31.6,30.10,SSW,203,9.8,19.2,38,0.00,,,0.00,WUHU216HW,2013-01-18 19:17:00,
2013-01-18 13:22:00,57.1,31.6,30.10,SW,225,8.7,18.6,38,0.00,,,0.00,WUHU216HW,2013-01-18 19:22:00,
2013-01-18 13:27:00,56.9,30.7,30.09,SW,225,11.0,26.2,37,0.00,,,0.00,WUHU216HW,2013-01-18 19:27:00,
2013-01-18 13:32:00,57.2,31.1,30.09,SW,225,15.0,26.2,37,0.00,,,0.00,WUHU216HW,2013-01-18 19:32:00,
2013-01-18 13:37:00,57.2,31.1,30.09,SW,225,8.5,23.9,37,0.00,,,0.00,WUHU216HW,2013-01-18 19:37:00,
2013-01-18 13:42:00,58.0,31.7,30.09,SW,225,11.9,23.9,37,0.00,,,0.00,WUHU216HW,2013-01-18 19:42:00,
2013-01-18 13:47:00,57.4,31.1,30.09,SW,225,18.6,20.8,37,0.00,,,0.00,WUHU216HW,2013-01-18 19:47:00,
2013-01-18 13:52:00,57.6,31.3,30.09,WSW,248,8.5,20.8,37,0.00,,,0.00,WUHU216HW,2013-01-18 19:52:00,
2013-01-18 13:57:00,57.6,31.3,30.09,West,270,10.3,17.0,37,0.00,,,0.00,WUHU216HW,2013-01-18 19:57:00,
2013-01-18 14:02:00,57.6,30.6,30.08,SW,225,20.8,21.7,36,0.00,,,0.00,WUHU216HW,2013-01-18 20:02:00,
2013-01-18 14:07:00,57.6,31.3,30.08,SW,225,9.2,21.7,37,0.00,,,0.00,WUHU216HW,2013-01-18 20:07:00,
2013-01-18 14:12:00,58.5,32.1,30.08,SSW,203,15.9,17.7,37,0.00,,,0.00,WUHU216HW,2013-01-18 20:12:00,
2013-01-18 14:17:00,58.5,31.4,30.08,SW,225,15.7,15.9,36,0.00,,,0.00,WUHU216HW,2013-01-18 20:17:00,
2013-01-18 14:22:00,58.7,31.6,30.07,SSW,203,14.8,17.2,36,0.00,,,0.00,WUHU216HW,2013-01-18 20:22:00,
2013-01-18 14:27:00,58.7,31.6,30.07,SW,225,16.6,22.8,36,0.00,,,0.00,WUHU216HW,2013-01-18 20:27:00,
2013-01-18 14:32:00,58.9,31.8,30.07,SSW,203,12.1,22.8,36,0.00,,,0.00,WUHU216HW,2013-01-18 20:32:00,
2013-01-18 14:37:00,59.2,31.4,30.07,SW,225,15.0,15.7,35,0.00,,,0.00,WUHU216HW,2013-01-18 20:37:00,
2013-01-18 14:42:00,59.4,32.2,30.07,WSW,248,14.3,21.5,36,0.00,,,0.00,WUHU216HW,2013-01-18 20:42:00,
2013-01-18 14:47:00,59.4,32.2,30.06,West,270,13.4,21.5,36,0.00,,,0.00,WUHU216HW,2013-01-18 20:47:00,
2013-01-18 14:52:00,59.6,31.0,30.06,WSW,248,7.8,17.4,34,0.00,,,0.00,WUHU216HW,2013-01-18 20:52:00,
2013-01-18 14:57:00,59.2,31.4,30.06,West,270,14.3,15.9,35,0.00,,,0.00,WUHU216HW,2013-01-18 20:57:00,
2013-01-18 15:03:00,59.4,32.2,30.06,SSW,203,13.2,15.9,36,0.00,,,0.00,WUHU216HW,2013-01-18 21:03:00,
2013-01-18 15:08:00,59.4,31.5,30.06,SSW,203,16.8,16.8,35,0.00,,,0.00,WUHU216HW,2013-01-18 21:08:00,
2013-01-18 15:13:00,59.4,31.5,30.06,SW,225,16.3,16.8,35,0.00,,,0.00,WUHU216HW,2013-01-18 21:13:00,
2013-01-18 15:18:00,59.9,31.3,30.06,NNW,338,12.1,17.2,34,0.00,,,0.00,WUHU216HW,2013-01-18 21:18:00,
2013-01-18 15:23:00,60.3,32.3,30.06,SSW,203,8.9,17.2,35,0.00,,,0.00,WUHU216HW,2013-01-18 21:23:00,
2013-01-18 15:28:00,60.3,31.6,30.05,SSW,203,14.3,17.4,34,0.00,,,0.00,WUHU216HW,2013-01-18 21:28:00,
2013-01-18 15:33:00,59.9,31.3,30.05,SSW,203,10.1,17.4,34,0.00,,,0.00,WUHU216HW,2013-01-18 21:33:00,
2013-01-18 15:38:00,59.8,31.9,30.05,SW,225,14.5,15.7,35,0.00,,,0.00,WUHU216HW,2013-01-18 21:38:00,
2013-01-18 15:43:00,59.9,32.7,30.05,SSW,203,9.8,16.6,36,0.00,,,0.00,WUHU216HW,2013-01-18 21:43:00,
2013-01-18 15:48:00,59.8,31.9,30.05,SW,225,10.7,17.0,35,0.00,,,0.00,WUHU216HW,2013-01-18 21:48:00,
2013-01-18 15:53:00,59.8,32.6,30.06,SSW,203,17.2,17.2,36,0.00,,,0.00,WUHU216HW,2013-01-18 21:53:00,
2013-01-18 15:58:00,59.6,32.4,30.07,WSW,248,15.4,17.2,36,0.00,,,0.00,WUHU216HW,2013-01-18 21:58:00,
2013-01-18 16:03:00,59.9,32.7,30.06,SW,225,12.3,17.2,36,0.00,,,0.00,WUHU216HW,2013-01-18 22:03:00,
2013-01-18 16:08:00,59.8,32.6,30.06,SSW,203,12.1,15.4,36,0.00,,,0.00,WUHU216HW,2013-01-18 22:08:00,
2013-01-18 16:13:00,59.8,32.6,30.05,SW,225,17.2,17.2,36,0.00,,,0.00,WUHU216HW,2013-01-18 22:13:00,
2013-01-18 16:18:00,59.4,32.2,30.05,SSW,203,11.4,17.2,36,0.00,,,0.00,WUHU216HW,2013-01-18 22:18:00,
2013-01-18 16:23:00,59.2,32.8,30.06,SSW,203,12.1,17.2,37,0.00,,,0.00,WUHU216HW,2013-01-18 22:23:00,
2013-01-18 16:28:00,58.9,32.5,30.06,SSW,203,8.5,16.6,37,0.00,,,0.00,WUHU216HW,2013-01-18 22:28:00,
2013-01-18 16:33:00,58.7,32.3,30.06,WSW,248,10.3,16.6,37,0.00,,,0.00,WUHU216HW,2013-01-18 22:33:00,
2013-01-18 16:38:00,58.5,32.1,30.06,SSW,203,6.7,10.3,37,0.00,,,0.00,WUHU216HW,2013-01-18 22:38:00,
2013-01-18 16:43:00,58.0,32.4,30.06,SSW,203,10.5,12.1,38,0.00,,,0.00,WUHU216HW,2013-01-18 22:43:00,
2013-01-18 16:48:00,57.2,32.4,30.05,South,180,7.8,12.1,39,0.00,,,0.00,WUHU216HW,2013-01-18 22:48:00,
2013-01-18 16:53:00,56.3,32.3,30.05,SW,225,7.6,11.0,40,0.00,,,0.00,WUHU216HW,2013-01-18 22:53:00,
2013-01-18 16:58:00,56.0,32.0,30.06,SSW,203,8.7,11.4,40,0.00,,,0.00,WUHU216HW,2013-01-18 22:58:00,
2013-01-18 17:03:00,55.6,32.2,30.06,SW,225,7.6,11.6,41,0.00,,,0.00,WUHU216HW,2013-01-18 23:03:00,
2013-01-18 17:08:00,55.3,31.9,30.06,SW,225,10.1,12.1,41,0.00,,,0.00,WUHU216HW,2013-01-18 23:08:00,
2013-01-18 17:13:00,55.1,31.8,30.06,SSW,203,5.1,12.1,41,0.00,,,0.00,WUHU216HW,2013-01-18 23:13:00,
2013-01-18 17:18:00,54.5,31.8,30.06,WSW,248,6.0,11.0,42,0.00,,,0.00,WUHU216HW,2013-01-18 23:18:00,
2013-01-18 17:23:00,54.2,32.0,30.06,South,180,8.1,11.0,43,0.00,,,0.00,WUHU216HW,2013-01-18 23:23:00,
2013-01-18 17:28:00,54.0,31.9,30.07,SSW,203,4.3,8.7,43,0.00,,,0.00,WUHU216HW,2013-01-18 23:28:00,
2013-01-18 17:33:00,53.6,31.6,30.07,SSW,203,7.4,8.7,43,0.00,,,0.00,WUHU216HW,2013-01-18 23:33:00,
2013-01-18 17:38:00,53.3,31.8,30.06,SW,225,6.9,8.7,44,0.00,,,0.00,WUHU216HW,2013-01-18 23:38:00,
2013-01-18 17:43:00,53.1,31.6,30.07,SSW,203,7.6,8.7,44,0.00,,,0.00,WUHU216HW,2013-01-18 23:43:00,
2013-01-18 17:48:00,52.9,31.5,30.07,SW,225,6.3,8.3,44,0.00,,,0.00,WUHU216HW,2013-01-18 23:48:00,
2013-01-18 17:53:00,52.4,31.0,30.07,SW,225,6.0,7.6,44,0.00,,,0.00,WUHU216HW,2013-01-18 23:53:00,
2013-01-18 17:58:00,52.2,30.8,30.07,SW,225,6.3,8.7,44,0.00,,,0.00,WUHU216HW,2013-01-18 23:58:00,
2013-01-18 18:03:00,51.8,30.5,30.08,SSW,203,5.4,8.7,44,0.00,,,0.00,WUHU216HW,2013-01-19 00:03:00,
2013-01-18 18:08:00,51.5,30.2,30.08,SSW,203,3.1,7.4,44,0.00,,,0.00,WUHU216HW,2013-01-19 00:08:00,
2013-01-18 18:13:00,51.1,30.4,30.08,SSW,203,5.1,5.4,45,0.00,,,0.00,WUHU216HW,2013-01-19 00:13:00,
2013-01-18 18:18:00,50.8,30.1,30.08,SW,225,6.0,6.0,45,0.00,,,0.00,WUHU216HW,2013-01-19 00:18:00,
2013-01-18 18:23:00,50.4,30.3,30.08,SW,225,5.8,6.0,46,0.00,,,0.00,WUHU216HW,2013-01-19 00:23:00,
2013-01-18 18:28:00,50.2,30.7,30.08,SW,225,6.9,6.9,47,0.00,,,0.00,WUHU216HW,2013-01-19 00:28:00,
2013-01-18 18:33:00,50.0,30.5,30.08,SW,225,5.1,7.6,47,0.00,,,0.00,WUHU216HW,2013-01-19 00:33:00,
2013-01-18 18:38:00,50.0,30.5,30.08,SW,225,4.5,7.8,47,0.00,,,0.00,WUHU216HW,2013-01-19 00:38:00,
2013-01-18 18:43:00,49.9,30.3,30.08,SW,225,7.8,8.3,47,0.00,,,0.00,WUHU216HW,2013-01-19 00:43:00,
2013-01-18 18:48:00,49.9,31.0,30.08,SSW,203,7.6,9.4,48,0.00,,,0.00,WUHU216HW,2013-01-19 00:48:00,
2013-01-18 18:53:00,49.7,30.8,30.08,SW,225,8.9,9.4,48,0.00,,,0.00,WUHU216HW,2013-01-19 00:53:00,
2013-01-18 18:58:00,49.9,31.0,30.08,SSW,203,8.5,11.4,48,0.00,,,0.00,WUHU216HW,2013-01-19 00:58:00,
2013-01-18 19:03:00,49.9,31.0,30.08,SW,225,7.8,11.4,48,0.00,,,0.00,WUHU216HW,2013-01-19 01:03:00,
2013-01-18 19:08:00,49.5,30.6,30.08,SSW,203,7.2,8.5,48,0.00,,,0.00,WUHU216HW,2013-01-19 01:08:00,
2013-01-18 19:13:00,49.5,31.2,30.08,SSW,203,6.9,8.5,49,0.00,,,0.00,WUHU216HW,2013-01-19 01:13:00,
2013-01-18 19:18:00,49.3,31.0,30.08,SW,225,5.6,8.5,49,0.00,,,0.00,WUHU216HW,2013-01-19 01:18:00,
2013-01-18 19:23:00,49.3,31.0,30.08,WSW,248,6.9,9.6,49,0.00,,,0.00,WUHU216HW,2013-01-19 01:23:00,
2013-01-18 19:28:00,49.3,31.0,30.08,SSW,203,7.2,9.6,49,0.00,,,0.00,WUHU216HW,2013-01-19 01:28:00,
2013-01-18 19:33:00,49.1,30.8,30.08,SSW,203,6.5,9.2,49,0.00,,,0.00,WUHU216HW,2013-01-19 01:33:00,
2013-01-18 19:38:00,49.0,30.6,30.08,South,180,5.4,9.2,49,0.00,,,0.00,WUHU216HW,2013-01-19 01:38:00,
2013-01-18 19:43:00,48.8,31.0,30.08,SW,225,7.6,11.4,50,0.00,,,0.00,WUHU216HW,2013-01-19 01:43:00,
2013-01-18 19:48:00,48.8,31.0,30.07,SSW,203,10.5,11.4,50,0.00,,,0.00,WUHU216HW,2013-01-19 01:48:00,
2013-01-18 19:53:00,48.8,31.0,30.07,SW,225,6.5,10.5,50,0.00,,,0.00,WUHU216HW,2013-01-19 01:53:00,
2013-01-18 19:58:00,48.8,31.0,30.07,SW,225,6.3,10.5,50,0.00,,,0.00,WUHU216HW,2013-01-19 01:58:00,
2013-01-18 20:03:00,48.6,30.8,30.07,SSW,203,6.5,8.7,50,0.00,,,0.00,WUHU216HW,2013-01-19 02:03:00,
2013-01-18 20:08:00,48.6,30.8,30.07,South,180,10.1,10.1,50,0.00,,,0.00,WUHU216HW,2013-01-19 02:08:00,
2013-01-18 20:13:00,48.4,31.1,30.06,SW,225,8.3,10.1,51,0.00,,,0.00,WUHU216HW,2013-01-19 02:13:00,
2013-01-18 20:18:00,48.4,31.1,30.06,SSW,203,6.9,10.1,51,0.00,,,0.00,WUHU216HW,2013-01-19 02:18:00,
2013-01-18 20:23:00,48.2,30.9,30.07,SSW,203,7.8,9.8,51,0.00,,,0.00,WUHU216HW,2013-01-19 02:23:00,
2013-01-18 20:28:00,48.2,30.9,30.07,SSW,203,7.6,9.8,51,0.00,,,0.00,WUHU216HW,2013-01-19 02:28:00,
2013-01-18 20:33:00,48.2,30.9,30.06,SSW,203,8.5,9.8,51,0.00,,,0.00,WUHU216HW,2013-01-19 02:33:00,
2013-01-18 20:38:00,48.1,30.7,30.06,SSW,203,8.3,9.6,51,0.00,,,0.00,WUHU216HW,2013-01-19 02:38:00,
2013-01-18 20:43:00,48.2,30.9,30.06,South,180,4.7,12.8,51,0.00,,,0.00,WUHU216HW,2013-01-19 02:43:00,
2013-01-18 20:48:00,48.1,30.7,30.06,South,180,7.6,12.8,51,0.00,,,0.00,WUHU216HW,2013-01-19 02:48:00,
2013-01-18 20:53:00,47.9,31.1,30.06,SW,225,8.1,11.2,52,0.00,,,0.00,WUHU216HW,2013-01-19 02:53:00,
2013-01-18 20:58:00,47.9,31.1,30.05,SSW,203,9.2,11.2,52,0.00,,,0.00,WUHU216HW,2013-01-19 02:58:00,
2013-01-18 21:03:00,47.7,30.9,30.05,SW,225,5.4,12.1,52,0.00,,,0.00,WUHU216HW,2013-01-19 03:03:00,
2013-01-18 21:08:00,47.5,30.7,30.06,SSE,158,7.8,14.1,52,0.00,,,0.00,WUHU216HW,2013-01-19 03:08:00,
2013-01-18 21:13:00,47.3,31.0,30.06,SW,225,6.9,14.1,53,0.00,,,0.00,WUHU216HW,2013-01-19 03:13:00,
2013-01-18 21:18:00,47.2,30.8,30.06,South,180,7.6,10.7,53,0.00,,,0.00,WUHU216HW,2013-01-19 03:18:00,
2013-01-18 21:23:00,47.2,30.8,30.06,SW,225,7.2,12.5,53,0.00,,,0.00,WUHU216HW,2013-01-19 03:23:00,
2013-01-18 21:28:00,47.0,30.7,30.06,WSW,248,4.7,12.5,53,0.00,,,0.00,WUHU216HW,2013-01-19 03:28:00,
2013-01-18 21:33:00,46.8,30.5,30.06,SSW,203,6.0,9.2,53,0.00,,,0.00,WUHU216HW,2013-01-19 03:33:00,
2013-01-18 21:38:00,46.8,31.0,30.06,WSW,248,9.2,9.4,54,0.00,,,0.00,WUHU216HW,2013-01-19 03:38:00,
2013-01-18 21:43:00,46.6,30.8,30.06,WSW,248,8.1,10.5,54,0.00,,,0.00,WUHU216HW,2013-01-19 03:43:00,
2013-01-18 21:48:00,46.4,30.6,30.06,SSW,203,5.4,10.5,54,0.00,,,0.00,WUHU216HW,2013-01-19 03:48:00,
2013-01-18 21:53:00,46.4,30.6,30.06,SSW,203,4.5,7.8,54,0.00,,,0.00,WUHU216HW,2013-01-19 03:53:00,
2013-01-18 21:58:00,46.1,30.7,30.06,SSW,203,6.3,6.9,55,0.00,,,0.00,WUHU216HW,2013-01-19 03:58:00,
2013-01-18 22:03:00,46.1,30.7,30.06,WSW,248,5.1,6.9,55,0.00,,,0.00,WUHU216HW,2013-01-19 04:03:00,
2013-01-18 22:08:00,45.7,30.4,30.06,SW,225,5.8,6.5,55,0.00,,,0.00,WUHU216HW,2013-01-19 04:08:00,
2013-01-18 22:13:00,45.7,30.9,30.05,SW,225,8.5,8.5,56,0.00,,,0.00,WUHU216HW,2013-01-19 04:13:00,
2013-01-18 22:18:00,45.7,30.9,30.05,SSW,203,8.5,8.5,56,0.00,,,0.00,WUHU216HW,2013-01-19 04:18:00,
2013-01-18 22:23:00,45.5,30.7,30.05,SSW,203,8.1,9.4,56,0.00,,,0.00,WUHU216HW,2013-01-19 04:23:00,
2013-01-18 22:28:00,45.4,31.0,30.05,SSW,203,6.9,9.4,57,0.00,,,0.00,WUHU216HW,2013-01-19 04:28:00,
2013-01-18 22:33:00,45.4,31.0,30.05,SSW,203,6.5,11.4,57,0.00,,,0.00,WUHU216HW,2013-01-19 04:33:00,
2013-01-18 22:38:00,45.4,31.0,30.05,SSW,203,8.3,11.4,57,0.00,,,0.00,WUHU216HW,2013-01-19 04:38:00,
2013-01-18 22:43:00,45.4,31.0,30.05,WSW,248,5.4,9.8,57,0.00,,,0.00,WUHU216HW,2013-01-19 04:43:00,
2013-01-18 22:48:00,45.4,31.0,30.05,SW,225,8.9,8.9,57,0.00,,,0.00,WUHU216HW,2013-01-19 04:48:00,
2013-01-18 22:53:00,45.2,30.8,30.05,SW,225,4.9,8.9,57,0.00,,,0.00,WUHU216HW,2013-01-19 04:53:00,
2013-01-18 22:58:00,45.0,30.7,30.05,SW,225,8.3,10.7,57,0.00,,,0.00,WUHU216HW,2013-01-19 04:58:00,
2013-01-18 23:00:00,45.0,30.7,30.05,SW,225,5.6,10.7,57,0.00,,,0.00,WUHU216HW,2013-01-19 05:00:00,
2013-01-18 23:01:00,45.0,30.7,30.05,SW,225,5.6,10.7,57,0.00,,,0.00,WUHU216HW,2013-01-19 05:01:00,
2013-01-18 23:02:00,45.0,30.7,30.05,SW,225,4.7,10.7,57,0.00,,,0.00,WUHU216HW,2013-01-19 05:02:00,
2013-01-18 23:03:00,45.0,30.7,30.05,SW,225,4.7,10.7,57,0.00,,,0.00,WUHU216HW,2013-01-19 05:03:00,
2013-01-18 23:08:00,44.8,30.5,30.05,SW,225,7.2,8.5,57,0.00,,,0.00,WUHU216HW,2013-01-19 05:08:00,
2013-01-18 23:13:00,44.6,30.3,30.05,SW,225,8.1,10.3,57,0.00,,,0.00,WUHU216HW,2013-01-19 05:13:00,
2013-01-18 23:18:00,44.6,30.3,30.04,West,270,7.6,10.3,57,0.00,,,0.00,WUHU216HW,2013-01-19 05:18:00,
2013-01-18 23:23:00,44.5,30.6,30.04,SW,225,7.6,9.2,58,0.00,,,0.00,WUHU216HW,2013-01-19 05:23:00,
2013-01-18 23:28:00,44.5,30.6,30.04,SW,225,6.9,10.1,58,0.00,,,0.00,WUHU216HW,2013-01-19 05:28:00,
2013-01-18 23:33:00,44.3,30.4,30.03,SSW,203,6.0,11.4,58,0.00,,,0.00,WUHU216HW,2013-01-19 05:33:00,
2013-01-18 23:38:00,44.3,30.4,30.03,SW,225,8.5,11.4,58,0.00,,,0.00,WUHU216HW,2013-01-19 05:38:00,
2013-01-18 23:43:00,44.3,30.4,30.03,WSW,248,7.6,9.8,58,0.00,,,0.00,WUHU216HW,2013-01-19 05:43:00,
2013-01-18 23:48:00,44.1,30.7,30.03,SW,225,6.3,10.5,59,0.00,,,0.00,WUHU216HW,2013-01-19 05:48:00,
2013-01-18 23:53:00,43.9,30.5,30.03,SSW,203,10.3,10.5,59,0.00,,,0.00,WUHU216HW,2013-01-19 05:53:00,
2013-01-18 23:58:00,43.9,30.5,30.03,SSW,203,11.4,11.4,59,0.00,,,0.00,WUHU216HW,2013-01-19 05:58:00,